Date String (YYYY-MM-DD hh:mm:ss) UTC,Instrument flags,absolute air pressure of the measurement (hPa),sample flow rate (lpm),inlet stack bypass flow (lpm),air temperature of the measurement (°C),ambient temperature measured by the external sensor (°C),aerosol sample conditioner tube jacket temperature (°C),OPC LED temperature (°C),internal box temperature (°C),relative humidity of the measurement (%),span deviation,mass concentration of particles derived from Lorenz-Mie calculation of OPC scattering (μg/m³),mass concentration of particles derived from Lorenz-Mie calculation of OPC scattering (μg/m³),mass concentration of particles derived from Lorenz-Mie calculation of OPC scattering (μg/m³)
DateTimeUTC,F1_M11,P_M11,Q1_M11,Q2_M11,T1_M11,T2_M11,T3_M11,T4_M11,T5_M11,U1_M11,ZSPAN_M11,X2_M11,X0_M11,X1_M11
2023-11-23 15:00:00,SystemResetWarning,0832.1,4.99,000.00,023.7,022.8,000.0,032.0,025.0,12.3,0000.0,0003.21,0009.21,0001.94
2023-11-23 15:01:00,SystemResetWarning,0832.1,5.00,000.00,023.7,022.7,000.0,032.0,025.0,12.3,0000.0,0003.17,0009.12,0001.94
2023-11-23 15:02:00,SystemResetWarning,0832.1,5.00,000.00,023.7,022.8,000.0,032.0,025.0,12.3,0000.0,0003.14,0009.04,0001.95
2023-11-23 15:03:00,SystemResetWarning,0832.1,5.00,000.00,023.7,022.8,000.0,032.0,024.9,12.3,0000.0,0003.18,0009.27,0001.95
2023-11-23 15:04:00,SystemResetWarning,0832.0,5.00,000.00,023.7,022.8,000.0,032.0,024.9,12.3,0000.0,0003.21,0009.35,0001.95
2023-11-23 15:05:00,SystemResetWarning,0832.1,5.01,000.00,023.7,022.8,000.0,032.0,024.9,12.3,0000.0,0003.21,0010.02,0001.95
2023-11-23 15:06:00,SystemResetWarning,0832.1,5.00,000.00,023.7,022.8,000.0,032.0,024.9,12.3,0000.0,0003.24,0010.40,0001.95
2023-11-23 15:07:00,SystemResetWarning,0832.1,5.00,000.00,023.7,022.8,000.0,032.0,024.9,12.4,0000.0,0003.21,0009.86,0001.96
2023-11-23 15:08:00,SystemResetWarning,0832.2,5.00,000.00,023.7,022.8,000.0,032.0,024.9,12.4,0000.0,0003.22,0009.41,0001.96
2023-11-23 15:09:00,SystemResetWarning,0832.1,4.99,000.00,023.7,022.8,000.0,032.0,024.9,12.4,0000.0,0003.28,0009.37,0001.97
2023-11-23 15:10:00,SystemResetWarning,0832.0,4.99,000.00,023.7,022.8,000.0,032.0,024.9,12.3,0000.0,0003.29,0009.84,0001.98
2023-11-23 15:11:00,SystemResetWarning,0832.0,5.00,000.00,023.7,022.8,000.0,032.0,025.0,12.4,0000.0,0003.30,0009.89,0001.99
2023-11-23 15:12:00,SystemResetWarning,0832.0,5.00,000.00,023.7,022.8,000.0,032.0,025.0,12.4,0000.0,0003.33,0009.81,0002.00
2023-11-23 15:13:00,SystemResetWarning,0832.0,5.00,000.00,023.7,022.8,000.0,032.0,024.9,12.3,0000.0,0003.34,0009.86,0002.01
2023-11-23 15:14:00,SystemResetWarning,0832.0,5.00,000.00,023.7,022.8,000.0,032.0,024.9,12.3,0000.0,0003.29,0009.76,0002.02
2023-11-23 15:15:00,SystemResetWarning,0832.0,5.00,000.00,023.7,022.8,000.0,032.0,024.9,12.3,0000.0,0003.29,0009.58,0002.03
2023-11-23 15:16:00,SystemResetWarning,0832.0,5.00,000.00,023.7,022.8,000.0,032.0,025.0,12.4,0000.0,0003.29,0008.98,0002.05
2023-11-23 15:17:00,SystemResetWarning,0832.0,5.00,000.00,023.7,022.8,000.0,032.0,025.0,12.4,0000.0,0003.32,0008.88,0002.06
2023-11-23 15:18:00,SystemResetWarning,0831.9,5.00,000.00,023.7,022.8,000.0,032.0,024.9,12.4,0000.0,0003.41,0009.11,0002.08
2023-11-23 15:19:00,SystemResetWarning,0831.9,5.00,000.00,023.7,022.8,000.0,032.0,024.9,12.4,0000.0,0003.40,0009.38,0002.09
2023-11-23 15:20:00,SystemResetWarning,0831.9,4.99,000.00,023.7,022.8,000.0,032.0,025.0,12.4,0000.0,0003.35,0009.19,0002.11
2023-11-23 15:21:00,SystemResetWarning,0831.9,4.99,000.00,023.7,022.8,000.0,032.0,025.0,12.5,0000.0,0003.37,0008.64,0002.11
2023-11-23 15:22:00,SystemResetWarning,0831.8,5.00,000.00,023.7,022.8,000.0,032.0,024.9,12.5,0000.0,0003.38,0008.83,0002.12
2023-11-23 15:23:00,SystemResetWarning,0831.8,5.01,000.00,023.7,022.8,000.0,032.0,025.0,12.5,0000.0,0003.36,0009.12,0002.12
2023-11-23 15:24:00,SystemResetWarning,0831.8,5.01,000.00,023.7,022.8,000.0,032.0,025.0,12.6,0000.0,0003.36,0009.17,0002.13
2023-11-23 15:25:00,SystemResetWarning,0831.8,5.01,000.00,023.7,022.8,000.0,032.0,025.0,12.6,0000.0,0003.39,0009.23,0002.13
2023-11-23 15:26:00,SystemResetWarning,0831.8,5.00,000.00,023.7,022.8,000.0,032.0,025.0,12.6,0000.0,0003.41,0009.70,0002.13
2023-11-23 15:27:00,SystemResetWarning,0831.8,4.99,000.00,023.7,022.8,000.0,032.0,025.0,12.6,0000.0,0003.41,0010.15,0002.15
2023-11-23 15:28:00,SystemResetWarning,0831.8,4.99,000.00,023.7,022.8,000.0,032.0,025.0,12.6,0000.0,0003.39,0009.85,0002.13
2023-11-23 15:29:00,SystemResetWarning,0831.9,4.99,000.00,023.7,022.8,000.0,032.0,025.0,12.6,0000.0,0003.32,0009.52,0002.12
2023-11-23 15:30:00,SystemResetWarning,0831.8,4.99,000.00,023.7,022.8,000.0,032.0,025.0,12.6,0000.0,0003.32,0009.27,0002.12
2023-11-23 15:31:00,SystemResetWarning,0831.9,5.00,000.00,023.7,022.8,000.0,032.0,025.0,12.7,0000.0,0003.37,0009.50,0002.11
2023-11-23 15:32:00,SystemResetWarning,0831.9,5.00,000.00,023.7,022.8,000.0,032.0,025.0,12.6,0000.0,0003.37,0009.75,0002.10
2023-11-23 15:33:00,SystemResetWarning,0832.0,5.00,000.00,023.7,022.8,000.0,032.0,025.0,12.6,0000.0,0003.36,0009.61,0002.08
2023-11-23 15:34:00,SystemResetWarning,0832.0,5.00,000.00,023.7,022.8,000.0,032.0,025.0,12.6,0000.0,0003.35,0009.00,0002.07
2023-11-23 15:35:00,SystemResetWarning,0832.0,5.00,000.00,023.7,022.8,000.0,032.0,025.0,12.7,0000.0,0003.35,0009.36,0002.04
2023-11-23 15:36:00,SystemResetWarning,0832.0,5.00,000.00,023.7,022.8,000.0,032.0,025.0,12.7,0000.0,0003.33,0009.66,0002.04
2023-11-23 15:37:00,SystemResetWarning,0832.0,5.00,000.00,023.7,022.8,000.0,032.0,025.0,12.6,0000.0,0003.33,0009.56,0002.02
2023-11-23 15:38:00,SystemResetWarning,0832.0,5.00,000.00,023.7,022.8,000.0,032.0,025.0,12.6,0000.0,0003.29,0008.88,0001.99
2023-11-23 15:39:00,SystemResetWarning,0832.0,5.00,000.00,023.8,022.8,000.0,032.0,025.0,12.7,0000.0,0003.31,0009.06,0001.99
2023-11-23 15:40:00,SystemResetWarning,0832.0,5.00,000.00,023.8,022.9,000.0,032.0,025.0,12.7,0000.0,0003.36,0009.34,0002.01
2023-11-23 15:41:00,SystemResetWarning,0832.0,5.00,000.00,023.8,022.9,000.0,032.0,025.0,12.7,0000.0,0003.37,0009.60,0002.00
2023-11-23 15:42:00,SystemResetWarning,0832.1,5.00,000.00,023.8,022.9,000.0,032.0,025.0,12.7,0000.0,0003.32,0009.27,0001.99
2023-11-23 15:43:00,SystemResetWarning,0832.0,5.00,000.00,023.8,022.9,000.0,032.0,025.0,12.7,0000.0,0003.29,0008.64,0002.00
2023-11-23 15:44:00,SystemResetWarning,0832.0,5.00,000.00,023.8,022.9,000.0,032.0,025.0,12.7,0000.0,0003.27,0008.79,0002.01
2023-11-23 15:45:00,SystemResetWarning,0832.0,5.00,000.00,023.8,022.9,000.0,032.0,025.0,12.7,0000.0,0003.27,0008.90,0002.01
2023-11-23 15:46:00,SystemResetWarning,0832.1,4.99,000.00,023.8,022.9,000.0,032.0,025.1,12.7,0000.0,0003.27,0008.84,0002.03
2023-11-23 15:47:00,SystemResetWarning,0832.1,4.99,000.00,023.8,022.9,000.0,032.0,025.0,12.7,0000.0,0003.29,0008.35,0002.06
2023-11-23 15:48:00,SystemResetWarning,0832.1,5.00,000.00,023.8,022.9,000.0,032.0,025.0,12.7,0000.0,0003.30,0008.18,0002.07
2023-11-23 15:49:00,SystemResetWarning,0832.1,5.00,000.00,023.8,022.9,000.0,032.0,025.0,12.7,0000.0,0003.35,0008.23,0002.10
2023-11-23 15:50:00,SystemResetWarning,0832.2,5.00,000.00,023.8,022.9,000.0,032.0,025.0,12.7,0000.0,0003.37,0008.46,0002.12
2023-11-23 15:51:00,SystemResetWarning,0832.2,5.00,000.00,023.8,022.9,000.0,032.0,025.0,12.7,0000.0,0003.34,0008.25,0002.13
2023-11-23 15:52:00,SystemResetWarning,0832.1,5.00,000.00,023.8,022.9,000.0,032.0,025.0,12.8,0000.0,0003.32,0008.12,0002.15
2023-11-23 15:53:00,SystemResetWarning,0832.0,5.00,000.00,023.8,022.9,000.0,032.0,025.0,12.8,0000.0,0003.33,0008.67,0002.18
2023-11-23 15:54:00,SystemResetWarning,0832.1,5.00,000.00,023.8,022.9,000.0,032.0,025.0,12.8,0000.0,0003.35,0008.70,0002.19
2023-11-23 15:55:00,SystemResetWarning,0832.0,5.00,000.00,023.8,022.9,000.0,032.1,025.0,12.8,0000.0,0003.35,0008.74,0002.20
2023-11-23 15:56:00,SystemResetWarning,0832.0,5.01,000.00,023.8,022.9,000.0,032.1,025.0,12.9,0000.0,0003.36,0009.38,0002.21
2023-11-23 15:57:00,SystemResetWarning,0832.0,5.00,000.00,023.8,022.9,000.0,032.1,025.1,12.9,0000.0,0003.41,0010.25,0002.22
2023-11-23 15:58:00,SystemResetWarning,0832.0,4.99,000.00,023.8,022.9,000.0,032.1,025.0,12.9,0000.0,0003.43,0010.20,0002.22
2023-11-23 15:59:00,SystemResetWarning,0832.0,4.99,000.00,023.8,022.9,000.0,032.0,025.1,12.9,0000.0,0003.43,0010.17,0002.24
